EW6178 Hyannis MA US current weather conditions

sailwx.info

Wind from 249

Air temperature 22.8° C
Dewpoint 16.1° C

Last reported at 2019-Aug-23 22:02 UTC.
Time now 2019-Aug-23 22:57 UTC

Location: N 41°38' W 070°17'.
View on Google Maps.

See reports from other nearby stations

  
Tides and Currents Weather Stations Pressure Air Temp Water Temp Dewpoint Dewpoint Depression Visibility Wind Speed Wind Dir Waves Ship Positions
date/time (UTC)wind fromknots sea level pressurealtimeterstation pressurevisibilityair tempwater tempwave heightnotes
2019-Aug-23 22:02 249 22.8
2019-Aug-23 21:55 254 23.3
2019-Aug-23 21:41 248 23.3
2019-Aug-23 21:32 173 22.8
2019-Aug-23 21:25 343 23.3
2019-Aug-23 21:10 255 23.3
2019-Aug-23 21:01 306 22.8
2019-Aug-23 20:55 242 23.3
2019-Aug-23 20:40 296 0 gusting 4 23.9
2019-Aug-23 20:32 009 23.9
2019-Aug-23 20:25 171 0 gusting 3 23.9
2019-Aug-23 20:16 317 23.9
2019-Aug-23 20:10 241 23.9
2019-Aug-23 19:55 324 0 gusting 2 23.3
2019-Aug-23 19:40 263 0 gusting 3 23.3
2019-Aug-23 19:31 280 22.8
2019-Aug-23 19:25 028 0 gusting 4 23.3
2019-Aug-23 19:10 343 0 gusting 3 23.3
2019-Aug-23 19:02 309 0 gusting 2 22.8
2019-Aug-23 18:55 347 0 gusting 2 23.3
2019-Aug-23 18:40 026 0 gusting 4 22.8
2019-Aug-23 18:31 337 23.3
2019-Aug-23 18:25 321 0 gusting 3 23.3
2019-Aug-23 18:10 229 0 gusting 2 23.3
2019-Aug-23 18:01 240 23.3
2019-Aug-23 17:55 054 0 gusting 2 23.3
2019-Aug-23 17:40 304 1 gusting 5 23.3
2019-Aug-23 17:32 301 0 gusting 4 22.8
2019-Aug-23 17:25 011 0 gusting 3 23.9
2019-Aug-23 17:17 281 23.3
2019-Aug-23 17:10 256 0 gusting 2 23.3
2019-Aug-23 16:55 255 22.2
2019-Aug-23 16:40 014 0 gusting 1 21.7
2019-Aug-23 16:31 221 21.1
2019-Aug-23 16:25 233 21.1
2019-Aug-23 16:10 259 21.1
2019-Aug-23 16:01 244 20.0
2019-Aug-23 15:55 282 20.0
2019-Aug-23 15:46 254 18.9
2019-Aug-23 15:40 269 19.4
2019-Aug-23 15:30 290 18.9
2019-Aug-23 15:25 260 18.9
2019-Aug-23 15:11 203 18.9
2019-Aug-23 14:55 265 18.9
2019-Aug-23 14:41 328 0 gusting 3 18.9
2019-Aug-23 14:31 298 18.3
2019-Aug-23 14:25 078 0 gusting 4 18.9
2019-Aug-23 14:11 257 0 gusting 7 18.9
2019-Aug-23 14:01 293 0 gusting 7 18.9
2019-Aug-23 13:55 313 1 gusting 7 19.4
2019-Aug-23 13:41 188 0 gusting 8 20.0
2019-Aug-23 13:30 033 1 gusting 9 20.0
2019-Aug-23 13:25 265 0 gusting 6 20.6
2019-Aug-23 13:10 283 1 gusting 9 21.7
2019-Aug-23 13:01 338 21.7
2019-Aug-23 12:55 057 0 gusting 5 22.2
2019-Aug-23 12:40 317 0 gusting 4 22.8
2019-Aug-23 12:31 060 1 gusting 7 23.3
2019-Aug-23 12:25 167 1 gusting 6 23.9
2019-Aug-23 12:18 350 0 gusting 5 23.9
2019-Aug-23 12:10 278 0 gusting 4 24.4
2019-Aug-23 12:01 300 23.3
2019-Aug-23 11:55 326 22.8
2019-Aug-23 11:40 315 22.2
2019-Aug-23 11:32 202 21.7
2019-Aug-23 11:25 202 21.7
2019-Aug-23 11:16 202 21.7
2019-Aug-23 11:10 202 21.7
2019-Aug-23 11:01 202 21.1
2019-Aug-23 10:55 202 21.7
2019-Aug-23 10:40 202 21.7
2019-Aug-23 10:31 202 21.7
2019-Aug-23 10:25 227 21.7
2019-Aug-23 10:10 241 21.7
2019-Aug-23 10:02 247 21.7
2019-Aug-23 09:55 247 21.7
2019-Aug-23 09:47 247 21.7
2019-Aug-23 09:40 247 22.2
2019-Aug-23 09:31 247 21.7
2019-Aug-23 09:25 257 22.2
2019-Aug-23 09:16 254 22.2
2019-Aug-23 09:10 257 22.2
2019-Aug-23 09:01 229 22.2
2019-Aug-23 08:55 282 22.2
2019-Aug-23 08:47 335 22.2
2019-Aug-23 08:40 295 22.8
2019-Aug-23 08:31 267 22.2
2019-Aug-23 08:25 296 0 gusting 2 22.8
2019-Aug-23 08:17 281 22.8
2019-Aug-23 08:10 313 0 gusting 3 22.8
2019-Aug-23 07:55 069 23.3
2019-Aug-23 07:40 334 0 gusting 4 23.9
2019-Aug-23 07:31 348 0 gusting 5 23.3
2019-Aug-23 07:25 306 0 gusting 2 23.9
2019-Aug-23 07:16 282 23.3
2019-Aug-23 07:10 289 0 gusting 2 23.9
2019-Aug-23 07:01 254 23.3
2019-Aug-23 06:55 247 23.9
2019-Aug-23 06:48 292 23.3
2019-Aug-23 06:40 223 23.9
2019-Aug-23 06:30 221 23.3
2019-Aug-23 06:25 176 23.9
2019-Aug-23 06:16 203 23.3
2019-Aug-23 06:10 275 23.9
2019-Aug-23 05:55 180 23.9
2019-Aug-23 05:40 153 0 gusting 7 23.9
2019-Aug-23 05:31 203 1 gusting 6 23.3
2019-Aug-23 05:25 153 23.9
2019-Aug-23 05:17 207 23.3
2019-Aug-23 05:10 178 23.9
2019-Aug-23 04:56 221 23.9
2019-Aug-23 04:46 209 23.9
2019-Aug-23 04:40 209 23.9
2019-Aug-23 04:25 189 24.4
2019-Aug-23 04:10 155 24.4
2019-Aug-23 04:02 206 23.9
2019-Aug-23 03:55 194 24.4
2019-Aug-23 03:47 268 23.9
2019-Aug-23 03:40 243 1 gusting 5 24.4
2019-Aug-23 03:31 175 23.9
2019-Aug-23 03:25 229 0 gusting 5 24.4
2019-Aug-23 03:10 151 25.0
2019-Aug-23 03:01 186 24.4
2019-Aug-23 02:55 169 0 gusting 5 25.0
2019-Aug-23 02:46 238 0 gusting 5 24.4
2019-Aug-23 02:40 201 25.0
2019-Aug-23 02:31 179 24.4
2019-Aug-23 02:25 223 25.0
2019-Aug-23 02:10 178 0 gusting 3 25.0
2019-Aug-23 01:55 202 0 gusting 3 25.0
2019-Aug-23 01:40 221 0 gusting 6 24.4
2019-Aug-23 01:25 203 1 gusting 6 24.4
2019-Aug-23 01:10 180 1 gusting 7 24.4
2019-Aug-23 00:55 213 3 gusting 8 24.4
2019-Aug-23 00:40 230 1 gusting 6 24.4
2019-Aug-23 00:31 165 0 gusting 6 24.4
2019-Aug-23 00:25 188 0 gusting 6 24.4
2019-Aug-23 00:10 171 0 gusting 6 24.4
2019-Aug-23 00:02 184 1 gusting 8 24.4
2019-Aug-22 23:55 232 2 gusting 7 24.4
2019-Aug-22 23:46 221 1 gusting 8 24.4
2019-Aug-22 23:40 168 2 gusting 7 25.0
2019-Aug-22 23:31 217 3 gusting 12 24.4
2019-Aug-22 23:25 190 3 gusting 12 25.0
2019-Aug-22 23:10 219 3 gusting 8 25.0
2019-Aug-22 23:02 223 1 gusting 8 25.6
2019-Aug-22 22:55 231 2 gusting 8 25.6
2019-Aug-22 22:46 166 2 gusting 9 25.6
2019-Aug-22 22:40 160 2 gusting 8 26.1
2019-Aug-22 22:32 209 6 gusting 13 26.1
2019-Aug-22 22:25 158 4 gusting 15 26.1
2019-Aug-22 22:10 090 4 gusting 10 27.2
2019-Aug-22 22:01 107 0 gusting 14 27.2
2019-Aug-22 21:55 328 4 gusting 14 27.2
2019-Aug-22 21:40 202 3 gusting 13 27.8
2019-Aug-22 21:31 139 3 gusting 13 27.2
2019-Aug-22 21:25 183 4 gusting 11 27.2
2019-Aug-22 21:10 215 5 gusting 13 27.2
2019-Aug-22 20:55 229 4 gusting 13 27.8
2019-Aug-22 20:47 186 4 gusting 12 27.2
2019-Aug-22 20:40 146 6 gusting 9 27.8
2019-Aug-22 20:31 230 4 gusting 10 28.3
2019-Aug-22 20:25 250 6 gusting 11 28.3
2019-Aug-22 20:10 241 5 gusting 12 29.4
2019-Aug-22 20:02 132 4 gusting 10 28.9
2019-Aug-22 19:55 203 2 gusting 8 29.4
2019-Aug-22 19:46 214 4 gusting 9 28.9
2019-Aug-22 19:40 166 2 gusting 10 28.9
2019-Aug-22 19:31 225 4 gusting 12 28.9
2019-Aug-22 19:25 211 3 gusting 10 29.4
2019-Aug-22 19:16 212 3 gusting 9 28.9
2019-Aug-22 19:10 146 2 gusting 9 29.4
2019-Aug-22 19:03 205 2 gusting 6 30.0
2019-Aug-22 18:55 242 3 gusting 9 30.0
2019-Aug-22 18:40 148 3 gusting 8 30.6
2019-Aug-22 18:31 140 2 gusting 6 30.0
2019-Aug-22 18:25 195 3 gusting 9 30.0
2019-Aug-22 18:17 173 2 gusting 6 30.0
2019-Aug-22 18:10 213 2 gusting 6 30.6
2019-Aug-22 17:55 180 2 gusting 10 30.6
2019-Aug-22 17:40 203 2 gusting 7 30.6
2019-Aug-22 17:30 160 2 gusting 8 31.1
2019-Aug-22 17:25 256 1 gusting 6 31.1
2019-Aug-22 17:18 202 2 gusting 9 30.6
2019-Aug-22 17:10 180 1 gusting 8 30.6
2019-Aug-22 16:55 197 2 gusting 9 30.6
2019-Aug-22 16:46 260 2 gusting 6 30.6
2019-Aug-22 16:40 190 2 gusting 6 31.1
2019-Aug-22 16:32 150 0 gusting 6 31.1
2019-Aug-22 16:25 231 1 gusting 5 31.1
2019-Aug-22 16:18 163 0 gusting 4 30.6
2019-Aug-22 16:10 244 1 gusting 3 31.1
2019-Aug-22 15:55 196 1 gusting 6 31.1
2019-Aug-22 15:40 174 0 gusting 3 31.1
2019-Aug-22 15:31 190 0 gusting 5 31.1
2019-Aug-22 15:25 136 0 gusting 6 31.1
2019-Aug-22 15:17 164 0 gusting 6 30.6
2019-Aug-22 15:10 214 1 gusting 8 30.6
2019-Aug-22 15:01 217 1 gusting 5 30.6
2019-Aug-22 14:55 171 1 gusting 4 31.1
2019-Aug-22 14:40 252 0 gusting 3 30.6
2019-Aug-22 14:31 202 1 gusting 4 29.4
2019-Aug-22 14:25 192 0 gusting 5 29.4
2019-Aug-22 14:17 203 1 gusting 6 28.9
2019-Aug-22 14:10 186 2 gusting 5 29.4
2019-Aug-22 14:02 203 1 gusting 4 29.4
2019-Aug-22 13:55 181 1 gusting 4 30.6
2019-Aug-22 13:47 202 30.0
2019-Aug-22 13:40 189 0 gusting 4 30.0
2019-Aug-22 13:31 217 1 gusting 5 29.4
2019-Aug-22 13:25 223 2 gusting 5 29.4
2019-Aug-22 13:18 163 29.4
2019-Aug-22 13:10 146 1 gusting 4 28.9
2019-Aug-22 12:55 203 0 gusting 4 28.9
2019-Aug-22 12:41 185 1 gusting 5 28.3
2019-Aug-22 12:31 218 27.2
2019-Aug-22 12:25 240 0 gusting 4 27.2
2019-Aug-22 12:10 182 0 gusting 4 26.1
2019-Aug-22 12:03 203 25.0
2019-Aug-22 11:55 208 25.6
2019-Aug-22 11:40 211 25.0
2019-Aug-22 11:32 226 25.0
2019-Aug-22 11:25 212 0 gusting 2 25.0
2019-Aug-22 11:16 229 24.4
2019-Aug-22 11:10 220 24.4
2019-Aug-22 10:55 203 24.4
2019-Aug-22 10:40 197 24.4
2019-Aug-22 10:25 202 24.4
2019-Aug-22 10:10 182 0 gusting 5 24.4
2019-Aug-22 09:55 230 1 gusting 4 24.4
2019-Aug-22 09:40 190 24.4
2019-Aug-22 09:32 203 23.9
2019-Aug-22 09:25 202 24.4
2019-Aug-22 09:10 235 24.4
2019-Aug-22 09:01 202 2 gusting 8 24.4
2019-Aug-22 08:55 227 1 gusting 8 24.4
2019-Aug-22 08:40 182 1 gusting 8 24.4
2019-Aug-22 08:32 152 1 gusting 8 24.4
2019-Aug-22 08:25 152 2 gusting 8 24.4
2019-Aug-22 08:10 234 4 gusting 10 24.4
2019-Aug-22 08:03 245 2 gusting 11 24.4
2019-Aug-22 07:55 144 4 gusting 10 24.4
2019-Aug-22 07:40 236 3 gusting 12 24.4
2019-Aug-22 07:32 190 3 gusting 12 24.4
2019-Aug-22 07:25 171 4 gusting 9 24.4
2019-Aug-22 07:10 155 4 gusting 13 25.0
2019-Aug-22 06:55 200 2 gusting 13 25.0
2019-Aug-22 06:40 235 4 gusting 10 25.0
2019-Aug-22 06:31 183 2 gusting 11 25.0
2019-Aug-22 06:25 246 4 gusting 13 25.0
2019-Aug-22 06:10 227 3 gusting 9 25.0
2019-Aug-22 06:01 205 3 gusting 12 24.4
2019-Aug-22 05:55 081 1 gusting 8 25.0
2019-Aug-22 05:40 227 4 gusting 9 24.4
2019-Aug-22 05:32 196 4 gusting 12 23.9
2019-Aug-22 05:25 233 4 gusting 9 24.4
2019-Aug-22 05:10 168 4 gusting 13 24.4
2019-Aug-22 04:55 227 4 gusting 14 24.4
2019-Aug-22 04:40 205 6 gusting 17 24.4
2019-Aug-22 04:25 235 1 gusting 10 24.4
2019-Aug-22 04:11 136 3 gusting 14 25.0
2019-Aug-22 04:02 151 3 gusting 10 24.4
2019-Aug-22 03:55 155 5 gusting 13 25.0
2019-Aug-22 03:40 164 4 gusting 15 25.0
2019-Aug-22 03:32 187 2 gusting 10 25.0
2019-Aug-22 03:25 161 4 gusting 13 25.0
2019-Aug-22 03:17 084 5 gusting 10 25.0
2019-Aug-22 03:10 159 3 gusting 9 25.0
2019-Aug-22 03:01 205 4 gusting 11 24.4
2019-Aug-22 02:55 229 4 gusting 11 25.0
2019-Aug-22 02:47 176 3 gusting 15 24.4
2019-Aug-22 02:40 192 4 gusting 10 25.0
2019-Aug-22 02:32 138 3 gusting 13 24.4
2019-Aug-22 02:25 211 4 gusting 13 25.0
2019-Aug-22 02:10 238 4 gusting 13 25.0
2019-Aug-22 01:55 209 5 gusting 13 25.0
2019-Aug-22 01:41 202 5 gusting 13 25.0
2019-Aug-22 01:32 010 3 gusting 12 25.0
2019-Aug-22 01:25 178 4 gusting 12 25.0
2019-Aug-22 01:15 134 3 gusting 12 25.0
2019-Aug-22 01:02 212 3 gusting 9 25.0
2019-Aug-22 00:55 138 4 gusting 9 25.0
2019-Aug-22 00:41 208 3 gusting 7 25.0
2019-Aug-22 00:30 232 2 gusting 9 24.4
2019-Aug-22 00:25 155 3 gusting 9 25.0
2019-Aug-22 00:10 223 4 gusting 10 24.4
2019-Aug-21 23:55 248 2 gusting 5 24.4
2019-Aug-21 23:41 169 1 gusting 6 25.0
2019-Aug-21 23:31 199 3 gusting 9 24.4
2019-Aug-21 23:25 163 4 gusting 7 25.0
2019-Aug-21 23:10 194 3 gusting 12 25.0
2019-Aug-21 23:02 155 3 gusting 10 25.0
2019-Aug-21 22:55 223 4 gusting 10 25.0
2019-Aug-21 22:47 203 3 gusting 8 25.0
2019-Aug-21 22:40 169 3 gusting 8 25.6
2019-Aug-21 22:31 159 4 gusting 9 25.6
2019-Aug-21 22:25 238 2 gusting 6 25.6
2019-Aug-21 22:16 223 2 gusting 7 25.6
2019-Aug-21 22:10 119 4 gusting 7 25.6
2019-Aug-21 22:01 180 3 gusting 7 25.6